TimeCDT,TemperatureF,Dew PointF,Humidity,Sea Level PressureIn,VisibilityMPH,Wind Direction,Wind SpeedMPH,Gust SpeedMPH,PrecipitationIn,Events,Conditions,WindDirDegrees,DateUTC
12:15 AM,46.4,24.8,43,29.97,10.0,NNW,9.2,-,N/A,,Clear,330,2012-10-02 05:15:00
12:35 AM,44.6,24.8,46,29.97,10.0,NNW,10.4,-,N/A,,Clear,330,2012-10-02 05:35:00
12:55 AM,44.6,24.8,46,29.97,10.0,NW,9.2,-,N/A,,Clear,320,2012-10-02 05:55:00
1:15 AM,42.8,24.8,49,29.97,10.0,NNW,9.2,-,N/A,,Clear,330,2012-10-02 06:15:00
1:35 AM,42.8,24.8,49,29.97,10.0,NNW,6.9,-,N/A,,Clear,330,2012-10-02 06:35:00
1:55 AM,42.8,23.0,46,29.97,10.0,NNW,6.9,-,N/A,,Clear,340,2012-10-02 06:55:00
2:15 AM,42.8,23.0,46,29.97,10.0,NW,3.5,-,N/A,,Clear,310,2012-10-02 07:15:00
2:35 AM,42.8,23.0,46,29.96,10.0,NW,4.6,-,N/A,,Clear,320,2012-10-02 07:35:00
2:55 AM,39.2,23.0,52,29.96,10.0,NW,5.8,-,N/A,,Clear,310,2012-10-02 07:55:00
3:15 AM,37.4,23.0,56,29.95,10.0,NW,3.5,-,N/A,,Clear,320,2012-10-02 08:15:00
3:35 AM,39.2,23.0,52,29.95,10.0,WNW,3.5,-,N/A,,Clear,300,2012-10-02 08:35:00
4:15 AM,37.4,21.2,52,29.95,10.0,NW,3.5,-,N/A,,Clear,310,2012-10-02 09:15:00
4:35 AM,37.4,21.2,52,29.95,10.0,WNW,3.5,-,N/A,,Clear,300,2012-10-02 09:35:00
4:55 AM,37.4,21.2,52,29.95,10.0,WNW,3.5,-,N/A,,Clear,290,2012-10-02 09:55:00
5:15 AM,35.6,21.2,56,29.95,10.0,WNW,3.5,-,N/A,,Clear,290,2012-10-02 10:15:00
5:35 AM,35.6,21.2,56,29.95,10.0,WNW,5.8,-,N/A,,Clear,300,2012-10-02 10:35:00
5:55 AM,35.6,23.0,60,29.95,10.0,WNW,3.5,-,N/A,,Clear,290,2012-10-02 10:55:00
6:15 AM,35.6,21.2,56,29.96,10.0,WNW,3.5,-,N/A,,Clear,300,2012-10-02 11:15:00
6:35 AM,37.4,24.8,60,29.96,10.0,Calm,Calm,-,N/A,,Clear,0,2012-10-02 11:35:00
6:55 AM,35.6,21.2,56,29.97,10.0,Calm,Calm,-,N/A,,Clear,0,2012-10-02 11:55:00
7:15 AM,37.4,23.0,56,29.96,10.0,Calm,Calm,-,N/A,,Clear,0,2012-10-02 12:15:00
7:35 AM,35.6,21.2,56,29.96,7.0,Calm,Calm,-,N/A,,Clear,0,2012-10-02 12:35:00
7:55 AM,35.6,21.2,56,29.97,4.0,West,3.5,-,N/A,,Clear,270,2012-10-02 12:55:00
8:15 AM,37.4,24.8,60,29.97,4.0,WNW,3.5,-,N/A,,Clear,290,2012-10-02 13:15:00
8:35 AM,42.8,26.6,53,29.97,7.0,Calm,Calm,-,N/A,,Clear,0,2012-10-02 13:35:00
8:55 AM,48.2,28.4,46,29.95,9.0,Calm,Calm,-,N/A,,Clear,0,2012-10-02 13:55:00
9:15 AM,51.8,28.4,41,29.95,10.0,Calm,Calm,-,N/A,,Clear,0,2012-10-02 14:15:00
9:35 AM,55.4,30.2,38,29.95,10.0,SE,4.6,-,N/A,,Clear,140,2012-10-02 14:35:00
9:55 AM,57.2,32.0,38,29.95,10.0,South,6.9,-,N/A,,Clear,170,2012-10-02 14:55:00
10:15 AM,59.0,33.8,39,29.94,10.0,South,8.1,-,N/A,,Clear,170,2012-10-02 15:15:00
10:35 AM,60.8,33.8,36,29.94,10.0,South,6.9,-,N/A,,Clear,190,2012-10-02 15:35:00
10:55 AM,62.6,33.8,34,29.93,10.0,SSW,8.1,-,N/A,,Clear,200,2012-10-02 15:55:00
11:15 AM,62.6,30.2,30,29.92,10.0,South,10.4,-,N/A,,Clear,180,2012-10-02 16:15:00
11:35 AM,64.4,30.2,28,29.92,10.0,SSW,8.1,-,N/A,,Clear,210,2012-10-02 16:35:00
11:55 AM,64.4,30.2,28,29.91,10.0,SSW,12.7,-,N/A,,Clear,200,2012-10-02 16:55:00
12:15 PM,66.2,30.2,26,29.91,10.0,SW,11.5,-,N/A,,Clear,220,2012-10-02 17:15:00
12:35 PM,66.2,28.4,24,29.90,10.0,WSW,11.5,-,N/A,,Clear,240,2012-10-02 17:35:00
12:55 PM,66.2,28.4,24,29.89,10.0,SSW,12.7,-,N/A,,Clear,210,2012-10-02 17:55:00
1:15 PM,66.2,28.4,24,29.89,10.0,SW,10.4,-,N/A,,Clear,220,2012-10-02 18:15:00
1:35 PM,66.2,28.4,24,29.87,10.0,WSW,11.5,17.3,N/A,,Clear,240,2012-10-02 18:35:00
1:55 PM,68.0,28.4,23,29.86,10.0,WSW,9.2,-,N/A,,Clear,240,2012-10-02 18:55:00
2:15 PM,68.0,26.6,21,29.85,10.0,SW,10.4,-,N/A,,Unknown,220,2012-10-02 19:15:00
2:35 PM,69.8,26.6,20,29.84,10.0,South,13.8,18.4,N/A,,Unknown,190,2012-10-02 19:35:00
2:55 PM,69.8,26.6,20,29.84,10.0,SSW,11.5,-,N/A,,Unknown,210,2012-10-02 19:55:00
3:15 PM,69.8,26.6,20,29.84,10.0,SW,11.5,-,N/A,,Unknown,220,2012-10-02 20:15:00
3:35 PM,69.8,26.6,20,29.83,10.0,SSW,12.7,18.4,N/A,,Unknown,210,2012-10-02 20:35:00
3:55 PM,69.8,26.6,20,29.83,10.0,South,12.7,16.1,N/A,,Unknown,190,2012-10-02 20:55:00
4:15 PM,69.8,26.6,20,29.83,10.0,SSW,12.7,17.3,N/A,,Unknown,200,2012-10-02 21:15:00
4:35 PM,69.8,24.8,18,29.83,10.0,SSW,10.4,-,N/A,,Unknown,210,2012-10-02 21:35:00
4:55 PM,71.6,24.8,17,29.82,10.0,SSW,11.5,16.1,N/A,,Unknown,210,2012-10-02 21:55:00
5:15 PM,71.6,24.8,17,29.81,10.0,SW,11.5,-,N/A,,Unknown,220,2012-10-02 22:15:00
5:35 PM,69.8,24.8,18,29.81,10.0,South,12.7,-,N/A,,Unknown,180,2012-10-02 22:35:00
5:55 PM,69.8,24.8,18,29.81,10.0,South,12.7,-,N/A,,Unknown,190,2012-10-02 22:55:00
6:15 PM,69.8,24.8,18,29.81,10.0,South,11.5,-,N/A,,Unknown,190,2012-10-02 23:15:00
6:35 PM,66.2,24.8,21,29.81,10.0,South,8.1,-,N/A,,Unknown,180,2012-10-02 23:35:00
7:15 PM,62.6,24.8,24,29.81,8.0,South,9.2,-,N/A,,Unknown,180,2012-10-03 00:15:00
7:35 PM,60.8,24.8,25,29.81,5.0,South,8.1,-,N/A,,Unknown,190,2012-10-03 00:35:00
7:55 PM,59.0,24.8,27,29.82,10.0,South,5.8,-,N/A,,Unknown,190,2012-10-03 00:55:00
8:15 PM,57.2,24.8,29,29.83,10.0,South,5.8,-,N/A,,Unknown,190,2012-10-03 01:15:00
8:35 PM,57.2,24.8,29,29.83,10.0,South,9.2,-,N/A,,Unknown,180,2012-10-03 01:35:00
8:55 PM,57.2,24.8,29,29.83,10.0,South,8.1,-,N/A,,Unknown,180,2012-10-03 01:55:00
9:15 PM,55.4,24.8,31,29.84,10.0,South,9.2,-,N/A,,Unknown,180,2012-10-03 02:15:00
9:35 PM,53.6,24.8,33,29.84,10.0,South,10.4,-,N/A,,Unknown,180,2012-10-03 02:35:00
9:55 PM,53.6,24.8,33,29.84,10.0,South,8.1,-,N/A,,Unknown,180,2012-10-03 02:55:00
10:15 PM,53.6,24.8,33,29.84,10.0,South,9.2,-,N/A,,Unknown,190,2012-10-03 03:15:00
10:35 PM,55.4,24.8,31,29.84,10.0,South,11.5,-,N/A,,Unknown,180,2012-10-03 03:35:00
10:55 PM,55.4,24.8,31,29.84,10.0,South,11.5,-,N/A,,Unknown,180,2012-10-03 03:55:00
11:15 PM,53.6,24.8,33,29.84,10.0,South,9.2,-,N/A,,Unknown,180,2012-10-03 04:15:00
11:35 PM,53.6,24.8,33,29.84,10.0,South,9.2,-,N/A,,Unknown,180,2012-10-03 04:35:00
11:55 PM,53.6,24.8,33,29.83,10.0,South,12.7,-,N/A,,Unknown,180,2012-10-03 04:55:00